{"data":{"norad_id":27875,"epoch":"2026-05-23T22:46:03.243360Z","epoch_age_seconds":159165,"freshness":"FRESH","line1":"1 27875U 03040A   26143.94864865  .00000119  00000+0  00000+0 0  9991","line2":"2 27875  10.4521  48.1798 0001818   3.4668 195.5313  1.00274024 32750","mean_motion":1.00274024,"eccentricity":0.0001818,"inclination_deg":10.4521,"raan_deg":48.1798,"arg_perigee_deg":3.4668,"mean_anomaly_deg":195.5313,"bstar":0,"rev_number":3275,"period_min":1436.0648376892,"perigee_km":35778.30186573,"apogee_km":35793.632734054,"semimajor_km":42164.104299892,"source":"CELESTRAK","updated_at":"2026-05-25T13:38:13.816505Z"}}